Weather History for Russell, KS

Change the Weather History Date:

Monday, February 4, 2013

  Actual Average Record
Temperature  
Mean Temperature 40 °F -  
Max Temperature 50 °F 38 °F 76 °F (1963)
Min Temperature 30 °F 17 °F -8 °F (1989)
Degree Days  
Heating Degree Days 25    
Moisture  
Dew Point 28 °F    
Average Humidity 68    
Maximum Humidity 85    
Minimum Humidity 43    
Precipitation  
Precipitation 0.00 in - - ()
Sea Level Pressure  
Sea Level Pressure 29.93 in    
Wind  
Wind Speed 9 mph (North)    
Max Wind Speed 14 mph    
Max Gust Speed 71 mph    
Visibility 10 miles    
Events      
Averages and records for this station are not official NWS values.
T = Trace of Precipitation, MM = Missing Value Source: NWS Daily Summary

Daily Weather History Graph

Daily Weather History Graph

Search for Another Location

Airport:

Trip Planner

Search our weather history database for the weather conditions in past years. The results will help you decide how hot, cold, wet, or windy it might be!

Date:

Astronomy

Feb. 04, 2013 Rise Set
Actual Time 7:38 AM CST 6:00 PM CST
Civil Twilight 7:10 AM CST 6:28 PM CST
Nautical Twilight 6:38 AM CST 7:00 PM CST
Astronomical Twilight 6:07 AM CST 7:31 PM CST
Moon 2:15 AM CST (2/4) 12:26 PM CST (2/4)
Length of Visible Light 11h 18m
Length of Day
10h 22m
Last Quarter, 37% of the Moon is Illuminated
Feb 4
Last Quarter
Feb 10
New
Feb 17
First Quarter
Feb 25
Full
Mar 4
Last Quarter

Hourly Weather History & Observations

Time (CST) Temp. Windchill Dew Point Humidity Pressure Visibility Wind Dir Wind Speed Gust Speed Precip Events Conditions
12:53 AM 37.0 °F 30.4 °F 30.0 °F 76% 29.82 in 10.0 mi WSW 9.2 mph - N/A   Clear
1:53 AM 35.1 °F 29.3 °F 28.9 °F 78% 29.81 in 10.0 mi West 6.9 mph - N/A   Clear
2:53 AM 30.9 °F 25.2 °F 27.0 °F 85% 29.83 in 10.0 mi WNW 5.8 mph - N/A   Clear
4:53 AM 36.0 °F 28.5 °F 26.1 °F 67% 29.87 in 10.0 mi North 10.4 mph - N/A   Clear
5:53 AM 32.0 °F 22.5 °F 25.0 °F 75% 29.91 in 10.0 mi North 12.7 mph - N/A   Clear
6:53 AM 32.0 °F 22.5 °F 25.0 °F 75% 29.94 in 10.0 mi NNW 12.7 mph - N/A   Clear
7:29 AM 30.2 °F 19.8 °F 24.8 °F 80% 29.93 in 10.0 mi North 13.8 mph 71.3 mph N/A   Clear
7:42 AM 32.0 °F 22.1 °F 24.8 °F 75% 29.93 in 10.0 mi North 13.8 mph - N/A   Clear
7:53 AM 32.0 °F 22.1 °F 25.0 °F 75% 29.97 in 10.0 mi North 13.8 mph - N/A   Clear
8:53 AM 36.0 °F 33.3 °F 27.0 °F 70% 29.98 in 10.0 mi NW 3.5 mph - N/A   Clear
9:53 AM 39.9 °F 33.4 °F 28.0 °F 63% 29.99 in 10.0 mi NNW 10.4 mph - N/A   Clear
10:53 AM 43.0 °F 36.4 °F 28.0 °F 56% 30.00 in 10.0 mi North 12.7 mph - N/A   Clear
11:53 AM 46.0 °F 41.4 °F 28.9 °F 51% 30.01 in 10.0 mi North 9.2 mph - N/A   Clear
12:53 PM 46.9 °F - 28.0 °F 48% 29.98 in 10.0 mi NNE 9.2 mph - N/A   Clear
1:53 PM 48.9 °F - 28.9 °F 46% 29.97 in 10.0 mi Variable 6.9 mph - N/A   Clear
2:53 PM 46.9 °F - 28.9 °F 50% 29.96 in 10.0 mi ENE 4.6 mph - N/A   Clear
3:53 PM 50.0 °F - 28.0 °F 43% 29.94 in 10.0 mi Calm Calm - N/A   Clear
4:53 PM 48.9 °F - 28.9 °F 46% 29.91 in 10.0 mi East 5.8 mph - N/A   Clear
5:53 PM 42.1 °F 37.1 °F 30.0 °F 62% 29.92 in 10.0 mi SE 8.1 mph - N/A   Clear
6:53 PM 37.9 °F 31.5 °F 28.9 °F 70% 29.96 in 10.0 mi ESE 9.2 mph - N/A   Clear
7:53 PM 35.1 °F 26.4 °F 28.9 °F 78% 29.96 in 10.0 mi SE 12.7 mph - N/A   Clear
8:53 PM 34.0 °F 25.0 °F 28.9 °F 82% 29.94 in 10.0 mi SSE 12.7 mph - N/A   Clear
9:53 PM 33.1 °F 25.5 °F 28.0 °F 82% 29.93 in 10.0 mi South 9.2 mph - N/A   Clear
10:53 PM 33.1 °F 23.4 °F 28.0 °F 82% 29.91 in 10.0 mi South 13.8 mph - N/A   Clear
11:53 PM 35.1 °F 26.4 °F 28.9 °F 78% 29.89 in 10.0 mi South 12.7 mph - N/A   Clear